sat.trackr.live / text

‹ back to catalog

STARLINK-35699

NORAD 66557 · 2025-268A

PAYLOAD ACTIVE UNKNOWN

§ Identity

Operator
Country
US
Launch date
2025-11-21
Launch site
AFETR
Launch vehicle
Mass (kg)
RCS (m²)

Purposes: comms

External: N2YO · Heavens-Above · Gunter

§ Orbital elements

Epoch: 2026-05-25T01:16:32.009664Z

Period
94.27 min
Inclination
43.0006°
Eccentricity
0.0002050
Mean motion
15.27584167 rev/d
Perigee alt
481.6 km
Apogee alt
484.4 km
Semi-major
6,861.2 km
B*
6.0479e-4
RAAN
276.2318°
Arg perigee
262.4449°
Mean anomaly
97.6170°
Rev number
2,963

§ Raw data

STARLINK-356991 66557U 25268A   26145.05314826  .00016420  00000+0  60479-3 0  99902 66557  43.0006 276.2318 0002050 262.4449  97.6170 15.27584167 29637

JSON: /api/v1/satellites/66557 · /tle

For live sub-satellite position, see the globe view (requires WebGL).

§ Visibility from observer

Set your observer location to see the next 7 days of passes ≥ 10°. The values pass through the URL so the page stays shareable.

No JS? Fill the form by hand. The geolocation button needs JavaScript.